Aleksei Kartashov

Chefscout - Strogino
3 Dez 2028
Sonntag
Verarbeitung

Persönlichkeit

Anpassungsfähigkeit (5) Ehrgeiz (4) Kontroverse (17) Loyalität (5) Druck (6) Professionalität (20) Fairness (10) Temperament (20)

Profil

Trainerstil Demokratisch
Lizenz Kontinentale Pro
Entschlossenheit 5
Menschenführung 7
Motivation 4
Disziplin 3
Arbeitszufriedenheit
100%
Ermüdung
0%
Rolle Chefscout
Gehalt 17.0K p/W
Vertrag 14.03.2029

Leistung

Verhalten Gut
Trainingseffektivität
15%
Spielerentwicklung
5%
Verletzungsprävention
25%
Taktische Umsetzung
10%

Letzte Ereignisse

Nahm an einer Scouting-Besprechung teil 7T her
Spiel beobachtet 7T her
Nahm an einer Scouting-Besprechung teil 14T her
Spiel beobachtet 14T her
Nahm an einer Scouting-Besprechung teil 21T her
Spiel beobachtet 21T her
Nahm an einer Scouting-Besprechung teil 28T her
Spiel beobachtet 35T her

Aktuell beobachtet

160
Spieler Verein Status Fähigkeit Vertrauen Beobachtet Zuletzt beobachtet Letzte Stimme
Stepan Pushkin Avangard Aktiv 60 / 59 41% 1 21.08.2028 -
Ilja Antsiferov Angusht Aktiv 57 / 75 40% 6 20.06.2028 -
Daniil Arsentjev Orel Aktiv 67 / 84 40% 1 14.06.2028 -
Gevork Sarkisyan Saturn Aktiv 88 / 83 40% 8 13.06.2028 -
Sergey Kapanzhi Kuban Holding Aktiv 71 / 68 40% 1 13.06.2028 -
Fernando Rodríguez Venialgo Daugavpils Aktiv 97 / 82 40% 1 11.06.2028 -
Lautaro Díaz San Martín Abgelehnt 100 / 72 40% 1 11.06.2028 -
Ruslan Radyukevich Niva Aktiv 82 / 70 40% 6 09.06.2028 -
Artur Kozyrev Volna Verloren 86 / 103 40% 1 09.06.2028 -
Artemy Ositsin Orel Aktiv 81 / 77 40% 2 08.06.2028 -
Dmitry Usov Textilschik Aktiv 85 / 87 40% 3 06.06.2028 -
Anton Gurylev Pobeda Aktiv 72 / 91 40% 4 05.06.2028 -
Vladislav Agalakov Metallurg Aktiv 94 / 68 40% 2 04.06.2028 -
Germán Cervera Alvarado Aktiv 118 / 102 40% 1 04.06.2028 -
David Kokoev Amkar Aktiv 72 / 63 40% 5 02.06.2028 -
Vadim Tsygankov Ryazan Aktiv 67 / 84 40% 1 02.06.2028 -
Anton Betyuzhnov Dinamo Vologda Aktiv 87 / 89 40% 6 01.06.2028 -
Andrés Dieppa Bogota Aktiv 85 / 86 40% 2 01.06.2028 -
Zakhar Tarasenko Veles Aktiv 96 / 82 40% 3 29.05.2028 -
Tobías Dieni Ryazan Aktiv 64 / 94 40% 2 29.05.2028 -
Ville Nilsson Metallurg Aktiv 72 / 66 40% 6 26.05.2028 -
Ilja Glebov Dinamo Stavropol Aktiv 87 / 60 40% 1 24.05.2028 -
Wilman Moreira Irkutsk Aktiv 63 / 70 40% 4 22.05.2028 -
Aziz Gaziev Dinamo St Petersburg Aktiv 83 / 67 40% 2 20.05.2028 -
Alexey Belikov Krylya Sovetov Aktiv 67 / 81 40% 3 19.05.2028 -
Andrey Domotsev Mashuk Aktiv 69 / 75 40% 3 17.05.2028 -
Fabrizio Fazzolari Legion Aktiv 86 / 91 40% 2 14.05.2028 -
Vladislav Bragin SKA Khabarovsk Aktiv 101 / 88 40% 2 11.05.2028 -
Arseny Lavrentjev Naxxar Lions Aktiv 58 / 55 40% 1 11.05.2028 -
Valery Arkhipenko Torpedo Vladimir Aktiv 61 / 56 40% 1 10.05.2028 -
Alexandr Shlenkin Dinamo Bryansk Aktiv 82 / 75 40% 4 08.05.2028 -
Nikita Kireev Dinamo Vologda Aktiv 68 / 73 40% 11 05.05.2028 -
Ilja Gruznov Khimik Aktiv 74 / 86 40% 9 05.05.2028 -
Nikita Rozhkov Saturn Aktiv 79 / 71 40% 6 03.05.2028 -
Nicolae Sula Kvant Aktiv 76 / 70 40% 2 03.05.2028 -
Artem Ntumba Rubin Yalta Aktiv 71 / 65 40% 5 29.04.2028 -
Rashid Salimov Pobeda Aktiv 78 / 90 40% 3 29.04.2028 -
Soslan Lysenko Spartak Nalchik Aktiv 91 / 72 40% 3 25.04.2028 -
Arseny Vainer Nosta Aktiv 72 / 65 40% 3 25.04.2028 -
James Rodrigues Nart Aktiv 89 / 82 40% 3 24.04.2028 -
Yegor Pankov Luki-Energiya Aktiv 91 / 67 40% 3 22.04.2028 -
Wojciech Szafranek Zenit Penza Aktiv 79 / 72 40% 3 14.04.2028 -
Nikita Chugunov Volna Aktiv 80 / 91 40% 2 10.04.2028 -
Andrea Zammit Valletta Aktiv 99 / 81 40% 1 08.04.2028 -
Anzor Khutov Mashuk Aktiv 83 / 82 40% 2 07.04.2028 -
Nikita Tereschuk Leningradets Aktiv 95 / 102 40% 3 04.04.2028 -
Nikita Dorofeev Dinamo Kirov Aktiv 84 / 67 40% 2 03.04.2028 -
Yaroslav Dol Nart Aktiv 78 / 71 40% 2 30.03.2028 -
Bekkhan Aliev Sevastopol Aktiv 65 / 75 40% 1 24.03.2028 -
Rohan Vaughan Zenit Penza Aktiv 79 / 72 40% 1 23.03.2028 -
Danila Yezhkov Dinamo Vologda Aktiv 88 / 83 40% 2 20.03.2028 -
Jakub Jakimiuk Uralets-TS Aktiv 76 / 78 40% 2 17.03.2028 -
Borko Duronjić Radnik Surdulica Aktiv 97 / 91 40% 1 17.03.2028 -
Timur Kim Arsenal Tula Aktiv 66 / 63 40% 1 16.03.2028 -
Sergey Gribov Dinamo Bryansk Aktiv 100 / 81 40% 3 06.03.2028 -
Agustín Mello Metallurg Aktiv 66 / 87 40% 1 06.03.2028 -
Nikita Golub Belshina Aktiv 88 / 78 40% 2 08.02.2028 -
Damir Zhelegotov Zvezda Aktiv 40 / 59 41% 1 26.01.2028 -
Mevran Ablak Angusht Aktiv 71 / 78 40% 6 20.01.2028 -
Oleg Tyulkov Osipovichi Aktiv 60 / 51 40% 5 11.01.2028 -
Maksim Chalavach Lokomotiv Gomel Aktiv 63 / 85 40% 2 08.01.2028 -
Nikita Pogrebnev Ryazan Aktiv 79 / 80 40% 3 06.01.2028 -
Ilja Stefanovich Leningradets Aktiv 85 / 95 40% 3 29.12.2027 -
Ivan Matyushenko Alania Aktiv 84 / 78 40% 2 27.12.2027 -
Ilya Tishurov Osipovichi Aktiv 71 / 79 40% 3 21.12.2027 -
Egor Petrov Slonim Aktiv 64 / 74 40% 2 20.12.2027 -
Vladislav Pulkach Vitebsk Aktiv 78 / 94 40% 2 14.12.2027 -
Gonzalo Flores Almirante Brown Aktiv 93 / 127 40% 2 13.12.2027 -
Oleg Trofimov Khimik Aktiv 83 / 71 40% 2 03.12.2027 -
Motiejus Burba Kauno Zalgiris Aktiv 86 / 73 40% 1 19.11.2027 -
Ken Kait Sillamae Kalev Aktiv 80 / 64 40% 3 14.11.2027 -
Josué Doké Narva Trans Aktiv 69 / 70 40% 2 07.11.2027 -
Joaquín Avilés Cerrito Aktiv 72 / 112 40% 1 30.10.2027 -
Kirill Mogel Dinamo Barnaul Aktiv 78 / 77 40% 1 29.10.2027 -
Vyacheslav Papava Slutsk Aktiv 64 / 77 40% 1 27.10.2027 -
Omar Bautista Gerez Central Córdoba SdE Aktiv 74 / 84 40% 1 23.10.2027 -
Mikhail Gainov Dinamo Stavropol Aktiv 90 / 79 40% 2 15.10.2027 -
Daniil Kulikov Belshina Aktiv 73 / 83 40% 2 14.10.2027 -
Hleb Shikavka Lokomotiv Gomel Aktiv 70 / 87 40% 1 08.10.2027 -
Rodrigo Monserrat Colegiales Aktiv 93 / 79 40% 1 26.07.2027 -
Soslan Dzarasov Slonim Aktiv 51 / 58 40% 1 19.07.2027 -
Marcos Inzaurraga Chaika Aktiv 80 / 96 40% 3 15.06.2027 -
Martin Artyukh Baranovichi Aktiv 96 / 98 40% 1 12.06.2027 -
Oleksandr Masalov Dinamo St Petersburg Aktiv 102 / 90 40% 1 08.06.2027 -
Alex Matsukatov Amkar Aktiv 74 / 84 40% 1 01.02.2027 -
Yaroslav Matvienko Legion Aktiv 61 / 66 40% 1 01.02.2027 -
Dmitry Solovjov Chertanovo Aktiv 62 / 62 40% 1 25.01.2027 -
Artem Popov KAMAZ Aktiv 85 / 77 40% 2 23.01.2027 -
Konstantin Kertanov Chelyabinsk Aktiv 95 / 98 40% 1 23.01.2027 -
Dmitry Kuptsov Spartak Tambov Aktiv 68 / 72 40% 2 19.01.2027 -
Maxim Polyakov Textilschik Aktiv 72 / 84 40% 1 19.01.2027 -
Dmitry Sasin Sokol Aktiv 82 / 99 40% 1 18.01.2027 -
Nikita Simdyankin KDV Tomsk Aktiv 96 / 77 40% 4 17.01.2027 -
Daniil Agureev Amkar Aktiv 105 / 75 40% 5 15.01.2027 -
Vladlen Babaev Tyumen Aktiv 88 / 103 40% 2 15.01.2027 -
Gocha Gogrichiani Volna Aktiv 84 / 94 40% 1 15.01.2027 -
Artem Malakhov Sokol Aktiv 100 / 96 40% 1 14.01.2027 -
Nikita Goldobin Amkar Aktiv 69 / 79 40% 2 13.01.2027 -
Kirill Myrzakov Khimik Aktiv 72 / 88 40% 1 11.01.2027 -
Yegor Ponomarev Tver Aktiv 83 / 62 40% 3 31.12.2026 -
Aleksej Golijanin Sokol Aktiv 76 / 91 40% 2 29.12.2026 -
Islamzhan Nasyrov Ryazan Aktiv 83 / 92 40% 1 29.12.2026 -
Rassambek Akhmatov KAMAZ Aktiv 95 / 109 40% 1 29.12.2026 -
Sergey Gaiduk Salyut Aktiv 92 / 73 40% 3 27.12.2026 -
Surkhaikhan Abdullaev KAMAZ Aktiv 76 / 84 40% 3 27.12.2026 -
Vladislav Yakovlev Volga Aktiv 77 / 95 40% 1 25.12.2026 -
Artem Stepanovich Sevastopol Aktiv 71 / 93 40% 1 21.12.2026 -
Mikhail Ageev Kuban Aktiv 88 / 99 40% 3 20.12.2026 -
Gleb Bakharev Kaluga Aktiv 72 / 96 40% 1 13.12.2026 -
Vitaly Dunay (Karpenko) Chaika Aktiv 74 / 90 40% 2 11.12.2026 -
Evgeny Voronin Volga Aktiv 95 / 82 40% 1 10.12.2026 -
Denis Terentjev Zenit Aktiv 114 / 83 40% 1 10.12.2026 -
Oleg Krasilnichenko Volga Aktiv 80 / 84 40% 1 04.12.2026 -
Danil Akhatov Ufa Aktiv 71 / 102 40% 1 02.12.2026 -
Magomednabi Yagjaev Nart Aktiv 93 / 68 40% 1 02.12.2026 -
Rizvan Umarov Dinamo St Petersburg Aktiv 84 / 83 40% 1 30.11.2026 -
Gonçalo Encarnação Angusht Aktiv 59 / 52 40% 1 27.11.2026 -
Abu-Said Eldarushev Rotor Aktiv 104 / 80 40% 1 26.11.2026 -
Dmitry Lesnikov Volgar Aktiv 106 / 100 40% 3 23.11.2026 -
Bilal Bilalov Dinamo Kirov Aktiv 96 / 68 40% 1 23.11.2026 -
Nikita Khlynov Torpedo Miass Aktiv 90 / 70 40% 1 19.11.2026 -
Danil Karpov KAMAZ Aktiv 79 / 90 40% 1 17.11.2026 -
Ivan Selemenev Mashuk Aktiv 81 / 78 40% 1 15.11.2026 -
Chingiz Magomadov Mashuk Aktiv 106 / 93 40% 1 15.11.2026 -
Nikita Kozlovskiy Murom Aktiv 97 / 71 40% 1 13.11.2026 -
Ismail Dibirov Dinamo Kirov Aktiv 68 / 75 40% 1 10.11.2026 -
Nikita Kuzin Kaluga Aktiv 82 / 74 40% 1 08.11.2026 -
Ivan Gulko KAMAZ Aktiv 101 / 80 40% 1 08.11.2026 -
Nikolay Maximov Krylya Sovetov Aktiv 77 / 78 40% 1 06.11.2026 -
Maxim Dmitriev Tyumen Aktiv 84 / 84 40% 1 06.11.2026 -
Ivan Tikhonov Naftan Aktiv 67 / 79 40% 1 30.10.2026 -
Dmitriy Latykhov Bumprom Gomel Aktiv 65 / 94 40% 1 25.10.2026 -
Maxim Kravtsov Neman Aktiv 105 / 102 40% 2 24.10.2026 -
Uroš Đuranović Sliema Wanderers Aktiv 97 / 94 40% 1 23.10.2026 -
Makhach Abdulkhamidov Alania Aktiv 67 / 97 40% 1 23.10.2026 -
Maxim Chikanchi Sibir Aktiv 88 / 82 40% 1 21.10.2026 -
Kirill Zabelin Dnepr Mogilev Aktiv 80 / 68 40% 1 16.10.2026 -
Milad Mohammadi Vitebsk Aktiv 94 / 106 40% 2 13.10.2026 -
Robert Murić Floriana Aktiv 100 / 129 40% 1 13.10.2026 -
Vasiliy Vasilenko Baranovichi Aktiv 70 / 89 40% 1 12.10.2026 -
Yuriy Kozlov Aktiv 99 / 79 40% 1 12.10.2026 -
Ibragim Tsallagov Viitorul Aktiv 79 / 92 40% 1 11.10.2026 -
Vadim Pobudey Torpedo-BelAZ Aktiv 106 / 79 40% 1 11.10.2026 -
Denis Grechikho Dinamo Brest Aktiv 96 / 99 40% 1 08.10.2026 -
Momodou Jobarteh Paide Aktiv 83 / 94 40% 1 06.10.2026 -
Kirill Kirilenko Dnepr Mogilev Aktiv 96 / 97 40% 1 27.09.2026 -
Arvydas Jankauskas Atlantas Aktiv 93 / 110 40% 1 25.09.2026 -
Linas Sernas Utenis Aktiv 85 / 84 40% 1 24.09.2026 -
Franklin Sasere Birkirkara Aktiv 96 / 75 40% 1 20.09.2026 -
Vladislav Lozhkin Dinamo Brest Aktiv 88 / 76 40% 1 19.09.2026 -
Matvey Martinkevich Dinamo Kirov Aktiv 66 / 88 40% 1 12.09.2026 -
Vladislav Fedosov Slutsk Aktiv 90 / 85 40% 1 09.09.2026 -
Roman Minaev Vitebsk Aktiv 69 / 84 40% 1 09.09.2026 -
Will Dickson Chesterfield Aktiv 85 / 117 40% 1 08.09.2026 -
Linas Barauskas Atlantas Aktiv 74 / 77 40% 1 03.09.2026 -
Olegs Ikaunieks Jelgava Aktiv 82 / 84 40% 1 24.08.2026 -
Dmitriy Lisakovich Dnepr Mogilev Aktiv 90 / 101 40% 1 10.08.2026 -
Modou Tambedou Nomme Kalju Aktiv 96 / 106 40% 1 03.08.2026 -
Pedro Acácio Torpedo-BelAZ Aktiv 91 / 101 40% 1 03.08.2026 -
Nosa Iyobosa Edokpolor Kauno Zalgiris Aktiv 113 / 99 40% 1 01.08.2026 -